| time (UTC) | temp C | wind direction | speed KPH | gust KPH | rain 1hr cm | rain 24hr cm | rain mn cm | humidity % | barometer mb |
| 20260509201237 | 23 | 248 | 29.0 | 40.2 | 0.00 | 0.00 | 0.00 | 28 | 1002.8 |
| 20260509200217 | 23 | 270 | 16.1 | 22.5 | 0.00 | 0.00 | 0.00 | 30 | 1002.8 |
| 20260509195237 | 22 | 248 | 25.7 | 38.6 | 0.00 | 0.00 | 0.00 | 30 | 1003.0 |
| 20260509194258 | 22 | 270 | 30.6 | 46.7 | 0.00 | 0.00 | 0.00 | 30 | 1003.1 |
| 20260509193217 | 22 | 225 | 20.9 | 35.4 | 0.00 | 0.00 | 0.00 | 32 | 1003.0 |
| 20260509192238 | 21 | 270 | 17.7 | 29.0 | 0.00 | 0.00 | 0.00 | 32 | 1003.0 |
| 20260509191217 | 21 | 270 | 25.7 | 35.4 | 0.00 | 0.00 | 0.00 | 30 | 1003.1 |
| 20260509190217 | 21 | 248 | 25.7 | 30.6 | 0.00 | 0.00 | 0.00 | 30 | 1002.9 |
| 20260509185237 | 21 | 248 | 17.7 | 24.1 | 0.00 | 0.00 | 0.00 | 29 | 1002.9 |
| 20260509184217 | 22 | 270 | 19.3 | 25.7 | 0.00 | 0.00 | 0.00 | 28 | 1002.8 |
| 20260509183217 | 22 | 0 | 19.3 | 25.7 | 0.00 | 0.00 | 0.00 | 28 | 1002.6 |
| 20260509182258 | 21 | 225 | 16.1 | 27.4 | 0.00 | 0.00 | 0.00 | 29 | 1002.5 |
| 20260509181217 | 22 | 0 | 20.9 | 33.8 | 0.00 | 0.00 | 0.00 | 32 | 1002.8 |
| 20260509180217 | 21 | 0 | 14.5 | 20.9 | 0.00 | 0.00 | 0.00 | 31 | 1003.0 |
| 20260509175237 | 21 | 270 | 14.5 | 20.9 | 0.00 | 0.00 | 0.00 | 30 | 1003.1 |
| 20260509174217 | 22 | 270 | 12.9 | 17.7 | 0.00 | 0.00 | 0.00 | 30 | 1003.0 |
| 20260509173217 | 22 | 248 | 19.3 | 29.0 | 0.00 | 0.00 | 0.00 | 29 | 1003.2 |
| 20260509172217 | 21 | 270 | 17.7 | 24.1 | 0.00 | 0.00 | 0.00 | 31 | 1003.2 |
| 20260509171237 | 21 | 270 | 16.1 | 24.1 | 0.00 | 0.00 | 0.00 | 33 | 1003.3 |
| 20260509170237 | 21 | 270 | 22.5 | 30.6 | 0.00 | 0.00 | 0.00 | 33 | 1003.3 |
| 20260509165217 | 21 | 248 | 14.5 | 20.9 | 0.00 | 0.00 | 0.00 | 36 | 1003.3 |
| 20260509164217 | 21 | 248 | 16.1 | 20.9 | 0.00 | 0.00 | 0.00 | 36 | 1003.4 |
| 20260509163237 | 21 | 270 | 19.3 | 30.6 | 0.00 | 0.00 | 0.00 | 38 | 1003.4 |
| 20260509162217 | 21 | 225 | 19.3 | 25.7 | 0.00 | 0.00 | 0.00 | 40 | 1003.2 |
| 20260509161217 | 20 | 293 | 12.9 | 17.7 | 0.00 | 0.00 | 0.00 | 50 | 1003.2 |
| 20260509160217 | 20 | 270 | 9.7 | 16.1 | 0.00 | 0.00 | 0.00 | 51 | 1003.1 |
| 20260509155217 | 19 | 180 | 11.3 | 16.1 | 0.00 | 0.00 | 0.00 | 60 | 1003.1 |
| 20260509154217 | 19 | 203 | 14.5 | 17.7 | 0.00 | 0.00 | 0.00 | 59 | 1003.2 |
| 20260509153217 | 18 | 0 | 9.7 | 12.9 | 0.00 | 0.00 | 0.00 | 60 | 1003.1 |
| 20260509152217 | 18 | 0 | 14.5 | 20.9 | 0.00 | 0.00 | 0.00 | 65 | 1003.2 |
| 20260509151217 | 17 | 0 | 12.9 | 17.7 | 0.00 | 0.00 | 0.00 | 66 | 1003.1 |
| 20260509150217 | 17 | 270 | 9.7 | 14.5 | 0.00 | 0.00 | 0.00 | 66 | 1003.1 |
| 20260509145217 | 17 | 0 | 12.9 | 17.7 | 0.00 | 0.00 | 0.00 | 68 | 1003.1 |
| 20260509144217 | 17 | 248 | 11.3 | 17.7 | 0.00 | 0.00 | 0.00 | 68 | 1003.1 |
| 20260509143217 | 16 | 225 | 12.9 | 14.5 | 0.00 | 0.00 | 0.00 | 70 | 1003.1 |
| 20260509142237 | 16 | 225 | 9.7 | 12.9 | 0.00 | 0.00 | 0.00 | 70 | 1003.1 |
| 20260509141217 | 16 | 270 | 14.5 | 20.9 | 0.00 | 0.00 | 0.00 | 72 | 1003.2 |
| 20260509140237 | 15 | 248 | 9.7 | 16.1 | 0.00 | 0.00 | 0.00 | 73 | 1002.9 |
| 20260509135258 | 15 | 0 | 11.3 | 16.1 | 0.00 | 0.00 | 0.00 | 76 | 1003.0 |
| 20260509134217 | 15 | 225 | 9.7 | 14.5 | 0.00 | 0.00 | 0.00 | 78 | 1002.9 |
| 20260509133216 | 14 | 203 | 9.7 | 16.1 | 0.00 | 0.00 | 0.00 | 80 | 1002.7 |
| 20260509132217 | 13 | 0 | 9.7 | 19.3 | 0.00 | 0.00 | 0.00 | 81 | 1002.8 |
| 20260509131257 | 13 | 0 | 12.9 | 19.3 | 0.00 | 0.00 | 0.00 | 82 | 1002.8 |
| 20260509130237 | 13 | 225 | 17.7 | 22.5 | 0.00 | 0.00 | 0.00 | 83 | 1003.0 |
| 20260509125216 | 12 | 0 | 11.3 | 19.3 | 0.00 | 0.00 | 0.00 | 84 | 1002.9 |
| 20260509124217 | 12 | 248 | 11.3 | 16.1 | 0.00 | 0.00 | 0.00 | 86 | 1002.8 |
| 20260509123217 | 12 | 0 | 14.5 | 22.5 | 0.00 | 0.00 | 0.00 | 87 | 1002.8 |
| 20260509122217 | 12 | 225 | 14.5 | 20.9 | 0.00 | 0.00 | 0.00 | 88 | 1002.8 |
| 20260509121216 | 11 | 225 | 11.3 | 17.7 | 0.00 | 0.00 | 0.00 | 89 | 1002.8 |
| 20260509120217 | 11 | 203 | 11.3 | 16.1 | 0.00 | 0.00 | 0.00 | 89 | 1002.8 |
| 20260509115237 | 11 | 203 | 11.3 | 17.7 | 0.00 | 0.00 | 0.00 | 89 | 1002.7 |
| 20260509114216 | 11 | 225 | 14.5 | 20.9 | 0.00 | 0.00 | 0.00 | 89 | 1002.7 |
| 20260509113237 | 11 | 203 | 9.7 | 14.5 | 0.00 | 0.00 | 0.00 | 89 | 1002.5 |
| 20260509112217 | 11 | 225 | 11.3 | 14.5 | 0.00 | 0.00 | 0.00 | 89 | 1002.4 |
| 20260509111216 | 11 | 248 | 9.7 | 16.1 | 0.00 | 0.00 | 0.00 | 89 | 1002.5 |
| 20260509110217 | 11 | 203 | 9.7 | 14.5 | 0.00 | 0.00 | 0.00 | 89 | 1002.3 |
| 20260509105216 | 11 | 203 | 11.3 | 17.7 | 0.00 | 0.00 | 0.00 | 89 | 1002.3 |
| 20260509104237 | 11 | 203 | 12.9 | 17.7 | 0.00 | 0.00 | 0.00 | 89 | 1002.5 |
| 20260509103216 | 11 | 248 | 4.8 | 6.4 | 0.00 | 0.00 | 0.00 | 89 | 1002.2 |
| 20260509102217 | 11 | 225 | 9.7 | 16.1 | 0.00 | 0.00 | 0.00 | 89 | 1002.1 |
| 20260509101216 | 11 | 203 | 12.9 | 20.9 | 0.00 | 0.00 | 0.00 | 89 | 1002.1 |
| 20260509100237 | 11 | 203 | 9.7 | 12.9 | 0.00 | 0.00 | 0.00 | 89 | 1002.1 |
| 20260509095216 | 11 | 203 | 6.4 | 9.7 | 0.00 | 0.00 | 0.00 | 89 | 1002.2 |
| 20260509094216 | 11 | 203 | 11.3 | 14.5 | 0.00 | 0.00 | 0.00 | 89 | 1002.4 |
| 20260509093216 | 11 | 225 | 6.4 | 9.7 | 0.00 | 0.00 | 0.00 | 89 | 1002.7 |
| 20260509092216 | 11 | 203 | 8.0 | 11.3 | 0.00 | 0.00 | 0.00 | 89 | 1002.7 |
| 20260509091236 | 11 | 225 | 9.7 | 14.5 | 0.00 | 0.00 | 0.00 | 88 | 1002.9 |
| 20260509090237 | 11 | 225 | 6.4 | 9.7 | 0.00 | 0.00 | 0.00 | 88 | 1003.0 |
| 20260509085216 | 11 | 203 | 8.0 | 12.9 | 0.00 | 0.00 | 0.00 | 88 | 1003.0 |
| 20260509084217 | 11 | 203 | 8.0 | 12.9 | 0.00 | 0.00 | 0.00 | 87 | 1002.9 |
| 20260509083216 | 11 | 203 | 8.0 | 11.3 | 0.00 | 0.00 | 0.00 | 87 | 1003.1 |
| 20260509082216 | 11 | 203 | 4.8 | 6.4 | 0.00 | 0.00 | 0.00 | 87 | 1003.0 |
| 20260509081216 | 11 | 225 | 6.4 | 11.3 | 0.00 | 0.00 | 0.00 | 86 | 1003.2 |
| 20260509080216 | 11 | 203 | 8.0 | 11.3 | 0.00 | 0.00 | 0.00 | 86 | 1003.0 |
| 20260509075237 | 11 | 225 | 8.0 | 11.3 | 0.00 | 0.00 | 0.00 | 86 | 1003.1 |
| 20260509074236 | 11 | 225 | 9.7 | 12.9 | 0.00 | 0.00 | 0.00 | 85 | 1003.2 |
| 20260509073216 | 11 | 203 | 6.4 | 9.7 | 0.00 | 0.00 | 0.00 | 85 | 1003.3 |
| 20260509072216 | 11 | 225 | 6.4 | 9.7 | 0.00 | 0.00 | 0.00 | 85 | 1003.5 |
| 20260509071236 | 11 | 225 | 6.4 | 8.0 | 0.00 | 0.00 | 0.00 | 85 | 1003.6 |
| 20260509070216 | 11 | 225 | 9.7 | 14.5 | 0.00 | 0.00 | 0.00 | 84 | 1003.7 |
| 20260509065222 | 11 | 203 | 8.0 | 11.3 | 0.00 | 0.00 | 0.00 | 84 | 1003.8 |
| 20260509064216 | 11 | 225 | 8.0 | 11.3 | 0.00 | 0.00 | 0.00 | 83 | 1004.0 |
| 20260509063216 | 12 | 203 | 11.3 | 19.3 | 0.00 | 0.00 | 0.00 | 83 | 1004.0 |
| 20260509062236 | 12 | 180 | 6.4 | 9.7 | 0.00 | 0.00 | 0.00 | 83 | 1004.1 |
| 20260509061216 | 12 | 203 | 9.7 | 14.5 | 0.00 | 0.00 | 0.00 | 82 | 1004.3 |
| 20260509060216 | 12 | 225 | 8.0 | 11.3 | 0.00 | 0.00 | 0.00 | 82 | 1004.3 |
| 20260509055236 | 12 | 225 | 11.3 | 14.5 | 0.00 | 0.00 | 0.00 | 82 | 1004.4 |
| 20260509054216 | 12 | 203 | 6.4 | 11.3 | 0.00 | 0.00 | 0.00 | 81 | 1004.5 |
| 20260509053216 | 12 | 203 | 6.4 | 9.7 | 0.00 | 0.00 | 0.00 | 80 | 1004.5 |
| 20260509052216 | 12 | 225 | 4.8 | 8.0 | 0.00 | 0.00 | 0.00 | 79 | 1004.6 |
| 20260509051216 | 12 | 203 | 6.4 | 9.7 | 0.00 | 0.00 | 0.00 | 78 | 1004.5 |
| 20260509050216 | 13 | 203 | 6.4 | 8.0 | 0.00 | 0.00 | 0.00 | 77 | 1004.5 |
| 20260509045216 | 13 | 203 | 6.4 | 9.7 | 0.00 | 0.00 | 0.00 | 75 | 1004.5 |
| 20260509044216 | 13 | 203 | 9.7 | 11.3 | 0.00 | 0.00 | 0.00 | 73 | 1004.5 |
| 20260509043216 | 13 | 203 | 6.4 | 9.7 | 0.00 | 0.00 | 0.00 | 72 | 1004.4 |
| 20260509042217 | 13 | 203 | 8.0 | 16.1 | 0.00 | 0.00 | 0.00 | 72 | 1004.4 |
| 20260509041216 | 13 | 203 | 8.0 | 11.3 | 0.00 | 0.00 | 0.00 | 71 | 1004.6 |
| 20260509040216 | 13 | 203 | 11.3 | 17.7 | 0.00 | 0.00 | 0.00 | 70 | 1004.6 |
| 20260509035217 | 13 | 203 | 8.0 | 12.9 | 0.00 | 0.00 | 0.00 | 69 | 1004.6 |
| 20260509034216 | 13 | 203 | 6.4 | 11.3 | 0.00 | 0.00 | 0.00 | 68 | 1004.7 |
| 20260509033216 | 13 | 203 | 8.0 | 11.3 | 0.00 | 0.00 | 0.00 | 67 | 1004.7 |
| 20260509032217 | 14 | 203 | 4.8 | 8.0 | 0.00 | 0.00 | 0.00 | 65 | 1004.5 |
| 20260509031216 | 14 | 203 | 4.8 | 6.4 | 0.00 | 0.00 | 0.00 | 62 | 1004.6 |
| 20260509030242 | 14 | 180 | 4.8 | 8.0 | 0.00 | 0.00 | 0.00 | 61 | 1004.5 |
| 20260509025216 | 14 | 180 | 8.0 | 12.9 | 0.00 | 0.00 | 0.00 | 60 | 1004.5 |
| 20260509024216 | 15 | 180 | 6.4 | 9.7 | 0.00 | 0.00 | 0.00 | 59 | 1004.5 |
| 20260509023216 | 15 | 180 | 1.6 | 4.8 | 0.00 | 0.00 | 0.00 | 58 | 1004.6 |
| 20260509022237 | 15 | 180 | 3.2 | 6.4 | 0.00 | 0.00 | 0.00 | 58 | 1004.6 |
| 20260509021216 | 15 | 203 | 3.2 | 4.8 | 0.00 | 0.00 | 0.00 | 57 | 1004.5 |
| 20260509020216 | 15 | 180 | 1.6 | 3.2 | 0.00 | 0.00 | 0.00 | 56 | 1004.5 |
| 20260509015216 | 16 | 180 | 3.2 | 6.4 | 0.00 | 0.00 | 0.00 | 55 | 1004.5 |
| 20260509014216 | 16 | 180 | 1.6 | 4.8 | 0.00 | 0.00 | 0.00 | 54 | 1004.4 |
| 20260509013216 | 16 | 203 | 3.2 | 6.4 | 0.00 | 0.00 | 0.00 | 54 | 1004.3 |
| 20260509012216 | 16 | 203 | 4.8 | 6.4 | 0.00 | 0.00 | 0.00 | 52 | 1004.3 |
| 20260509011216 | 17 | 180 | 4.8 | 4.8 | 0.00 | 0.00 | 0.00 | 51 | 1004.3 |
| 20260509010216 | 17 | 203 | 4.8 | 6.4 | 0.00 | 0.00 | 0.00 | 50 | 1004.2 |
| 20260509005216 | 17 | 180 | 8.0 | 12.9 | 0.00 | 0.00 | 0.00 | 49 | 1004.1 |
| 20260509004216 | 17 | 203 | 8.0 | 11.3 | 0.00 | 0.00 | 0.00 | 48 | 1004.2 |
| 20260509003237 | 18 | 225 | 3.2 | 4.8 | 0.00 | 0.00 | 0.00 | 47 | 1004.2 |
| 20260509002216 | 18 | 180 | 4.8 | 8.0 | 0.00 | 0.00 | 0.00 | 47 | 1004.2 |
| 20260509001216 | 18 | 203 | 8.0 | 11.3 | 0.00 | 0.00 | 0.00 | 46 | 1004.4 |
| 20260509000219 | 18 | 203 | 4.8 | 8.0 | 0.00 | 0.00 | 0.00 | 46 | 1004.4 |
| 20260508235216 | 18 | 203 | 6.4 | 8.0 | 0.00 | 0.00 | 0.00 | 46 | 1004.4 |
| 20260508234216 | 18 | 180 | 6.4 | 11.3 | 0.00 | 0.00 | 0.00 | 45 | 1004.5 |
| 20260508233216 | 18 | 225 | 4.8 | 6.4 | 0.00 | 0.00 | 0.00 | 43 | 1004.5 |
| 20260508232216 | 19 | 225 | 8.0 | 9.7 | 0.00 | 0.00 | 0.00 | 42 | 1004.5 |
| 20260508231216 | 20 | 203 | 3.2 | 6.4 | 0.00 | 0.00 | 0.00 | 41 | 1004.5 |
| 20260508230216 | 19 | 203 | 11.3 | 16.1 | 0.00 | 0.00 | 0.00 | 42 | 1004.7 |
| 20260508225216 | 20 | 203 | 8.0 | 11.3 | 0.00 | 0.00 | 0.00 | 41 | 1004.6 |
| 20260508224236 | 20 | 225 | 6.4 | 8.0 | 0.00 | 0.00 | 0.00 | 42 | 1004.6 |
| 20260508223216 | 20 | 113 | 4.8 | 9.7 | 0.00 | 0.00 | 0.00 | 43 | 1004.6 |
| 20260508222216 | 19 | 158 | 3.2 | 4.8 | 0.00 | 0.00 | 0.00 | 44 | 1004.7 |
| 20260508221216 | 20 | 180 | 6.4 | 8.0 | 0.00 | 0.00 | 0.00 | 44 | 1004.9 |
| 20260508220236 | 20 | 225 | 8.0 | 12.9 | 0.00 | 0.00 | 0.00 | 43 | 1005.0 |
| 20260508215216 | 20 | 248 | 8.0 | 11.3 | 0.00 | 0.10 | 0.00 | 41 | 1005.0 |
| 20260508214216 | 20 | 180 | 6.4 | 9.7 | 0.00 | 0.10 | 0.00 | 41 | 1005.0 |
| 20260508213216 | 18 | 225 | 8.0 | 11.3 | 0.00 | 0.10 | 0.00 | 44 | 1005.1 |
| 20260508212216 | 18 | 203 | 8.0 | 8.0 | 0.00 | 0.10 | 0.00 | 43 | 1005.1 |
| 20260508211216 | 19 | 248 | 6.4 | 11.3 | 0.00 | 0.10 | 0.00 | 42 | 1005.3 |
| 20260508210216 | 19 | 270 | 4.8 | 6.4 | 0.00 | 0.10 | 0.00 | 40 | 1005.2 |
| 20260508205216 | 20 | 293 | 1.6 | 3.2 | 0.00 | 0.13 | 0.00 | 40 | 1005.3 |
| 20260508204216 | 20 | 248 | 3.2 | 6.4 | 0.00 | 0.13 | 0.00 | 41 | 1005.5 |
| 20260508203216 | 20 | 180 | 9.7 | 16.1 | 0.00 | 0.13 | 0.00 | 40 | 1005.7 |
| 20260508202215 | 20 | 135 | 8.0 | 11.3 | 0.00 | 0.13 | 0.00 | 42 | 1005.9 |